FW2545 Weather Reports


time (UTC)temp
C
wind
direction
speed
KPH
gust
KPH
rain 1hr
cm
rain 24hr
cm
rain mn
cm
humidity
%
barometer
mb
20260507010031 20 290 12.9 30.6 0.00 0.00 0.00 46 1019.0
20260507003104 21 275 12.9 27.4 0.00 0.00 0.00 45 1018.9
20260507000031 22 283 11.3 22.5 0.00 0.00 0.00 44 1018.6
20260506234531 22 300 9.7 22.5 0.00 0.00 0.00 44 1018.6
20260506233030 23 298 8.0 24.1 0.00 0.00 0.00 42 1018.7
20260506231530 23 282 9.7 24.1 0.00 0.00 0.00 42 1018.7
20260506230031 24 281 11.3 22.5 0.00 0.00 0.00 41 1018.7
20260506224529 25 273 14.5 29.0 0.00 0.00 0.00 41 1018.7
20260506223104 24 278 17.7 33.8 0.00 0.00 0.00 42 1018.8
20260506221532 25 304 14.5 29.0 0.00 0.00 0.00 41 1018.9
20260506213029 25 283 11.3 25.7 0.00 0.00 0.00 42 1018.7
20260506211529 25 293 11.3 24.1 0.00 0.00 0.00 42 1018.9
20260506210030 25 292 12.9 25.7 0.00 0.00 0.00 43 1018.9
20260506204603 25 296 12.9 25.7 0.00 0.00 0.00 43 1018.9
20260506201540 25 318 11.3 29.0 0.00 0.00 0.00 47 1019.0
20260506200028 24 307 12.9 30.6 0.00 0.00 0.00 48 1019.0
20260506194603 23 300 14.5 32.2 0.00 0.00 0.00 50 1018.9
20260506191604 22 329 12.9 27.4 0.00 0.00 0.00 53 1019.5
20260506190032 22 309 12.9 29.0 0.00 0.00 0.00 55 1019.3
20260506184608 21 323 12.9 29.0 0.00 0.00 0.00 57 1019.4
20260506181530 20 318 12.9 24.1 0.00 0.00 0.00 61 1019.5
20260506180029 20 317 11.3 25.7 0.00 0.00 0.00 62 1019.4
20260506174529 20 334 8.0 24.1 0.00 0.00 0.00 64 1019.4
20260506173104 19 313 8.0 20.9 0.00 0.00 0.00 65 1019.4
20260506171532 18 1 3.2 12.9 0.00 0.00 0.00 67 1019.4
20260506170105 18 287 4.8 11.3 0.00 0.00 0.00 69 1019.7
20260506164540 17 336 9.7 24.1 0.00 0.00 0.00 72 1019.9
20260506163030 17 190 3.2 9.7 0.00 0.00 0.00 75 1019.9
20260506160114 15 246 1.6 6.4 0.00 0.00 0.00 86 1020.0
20260506154607 13 187 1.6 8.0 0.00 0.00 0.00 90 1019.9
20260506153030 12 173 1.6 6.4 0.00 0.00 0.00 93 1019.9
20260506151604 11 159 3.2 6.4 0.00 0.00 0.00 94 1020.0
20260506150028 9 157 0.0 4.8 0.00 0.00 0.00 95 1019.9
20260506144646 8 157 0.0 1.6 0.00 0.00 0.00 95 1019.8
20260506143029 7 157 0.0 4.8 0.00 0.00 0.00 95 1019.6
20260506141531 7 211 0.0 6.4 0.00 0.00 0.00 95 1019.5
20260506140028 6 247 0.0 6.4 0.00 0.00 0.00 94 1019.4
20260506134533 6 225 0.0 3.2 0.00 0.00 0.00 94 1019.1
20260506133029 6 203 1.6 4.8 0.00 0.00 0.00 94 1019.0
20260506131531 6 232 1.6 4.8 0.00 0.00 0.00 94 1018.8
20260506124532 5 212 3.2 6.4 0.00 0.00 0.00 94 1018.4
20260506123031 5 237 0.0 6.4 0.00 0.00 0.00 94 1018.3
20260506121530 5 229 3.2 8.0 0.00 0.00 0.00 94 1018.2
20260506120033 6 227 1.6 6.4 0.00 0.00 0.00 94 1018.1
20260506114529 6 219 1.6 4.8 0.00 0.00 0.00 94 1018.0
20260506113030 6 221 3.2 6.4 0.00 0.00 0.00 93 1018.0
20260506104531 6 221 1.6 4.8 0.00 0.00 0.00 93 1017.7
20260506103105 6 208 1.6 4.8 0.00 0.00 0.00 93 1017.6
20260506101529 6 247 1.6 4.8 0.00 0.00 0.00 93 1017.6
20260506100054 6 232 1.6 4.8 0.00 0.00 0.00 93 1017.6
20260506094532 7 223 3.2 4.8 0.00 0.00 0.00 93 1017.6
20260506093108 7 225 1.6 4.8 0.00 0.00 0.00 92 1017.5
20260506091531 7 225 1.6 3.2 0.00 0.00 0.00 92 1017.4
20260506090145 7 220 0.0 4.8 0.00 0.00 0.00 92 1017.4
20260506084530 7 220 1.6 4.8 0.00 0.00 0.00 92 1017.3
20260506083029 7 204 0.0 4.8 0.00 0.00 0.00 92 1017.2
20260506073032 8 212 0.0 8.0 0.00 0.00 0.00 90 1016.8
20260506071604 8 259 1.6 4.8 0.00 0.00 0.00 90 1016.7
20260506061646 9 337 0.0 0.0 0.00 0.00 0.00 88 1016.3
20260506050105 11 320 0.0 1.6 0.00 0.00 0.00 84 1015.9
20260506044530 11 64 0.0 4.8 0.00 0.00 0.00 82 1015.8
20260506043029 12 337 0.0 3.2 0.00 0.00 0.00 80 1015.6
20260506041531 13 22 0.0 0.0 0.00 0.00 0.00 78 1015.4
20260506040034 13 22 0.0 3.2 0.00 0.00 0.00 75 1015.2
20260506034604 15 32 0.0 6.4 0.00 0.00 0.00 73 1014.9
20260506033031 16 36 1.6 6.4 0.00 0.00 0.00 69 1014.7
20260506031529 17 51 1.6 8.0 0.00 0.00 0.00 65 1014.5
20260506030105 18 354 4.8 9.7 0.00 0.00 0.00 64 1014.4
20260506023029 20 28 4.8 9.7 0.00 0.00 0.00 60 1014.2
20260506021531 20 34 3.2 8.0 0.00 0.00 0.00 58 1014.2
20260506020036 21 337 1.6 6.4 0.00 0.00 0.00 56 1014.1
20260506014645 21 357 1.6 8.0 0.00 0.00 0.00 54 1014.0
20260506013031 21 345 3.2 11.3 0.00 0.00 0.00 54 1014.0
20260506011530 22 336 8.0 17.7 0.00 0.00 0.00 52 1013.8